Tracking 27371 objects as of 7-Jun-2023
HD Live streaming from Space Station
objects crossing your sky now

FENGYUN 1C DEB

Track FENGYUN 1C DEB now!
10-day predictions


NORAD ID: 36173
Int'l Code: 1999-025DSW
Perigee: 713.8 km
Apogee: 935.9 km
Inclination: 98.1 °
Period: 101.2 minutes
Semi major axis: 7195 km
RCS: 0.0079 m2 (small)
Launch date: May 10, 1999
Source: People's Republic of China (PRC)
Launch site: Taiyaun Space Center, China (TSC)

Note: This is SATELLITE DEBRIS
Your satellite tracking list
Your tracking list is empty




NASA's NSSDC Master Catalog

Two Line Element Set (TLE):
1 36173U 99025DSW 23155.76320207  .00000937  00000-0  38923-3 0  9995
2 36173  98.1331 167.5932 0154343  21.1736 339.5740 14.22272252459727
Source of the keplerian elements: AFSPC